Location: Crescent
(42.8242°N, 73.7329°W)
Time: 01:37:27
(UTC+00:00)

Transit 4A - Pass Details

Date: 18 February 2026
Orbit: 864 x 977 km, 66.8° (Epoch: 10 March)

Event Time Altitude Azimuth Distance (km) Brightness Sun altitude
Rises 09:04:06 0° 223° (SW) 3,447 - -30.6°
Reaches altitude 10° 09:06:36 10° 228° (SW) 2,522 - -30.1°
Maximum altitude 09:12:19 55° 306° (NW) 1,060 - -29.1°
Exits shadow 09:13:38 46° 349° (N) 1,189 8.4 -28.9°
Drops below altitude 10° 09:18:14 10° 24° (NNE) 2,603 10.6 -28.0°
Sets 09:20:51 0° 29° (NNE) 3,567 11.5 -27.5°
